Regional Weather Roundup
Issued by NWS Northern Indiana

Home | Current Version | Previous Version | Graphics & Text | Print | Product List | Glossary On
Versions: 1 2 3 4 5 6 7 8 9 10 11 12 13 14 15 16 17 18 19 20 21 22 23 24 25 26 27 28 29 30 31 32 33 34 35 36 37 38 39 40 41 42 43 44 45 46 47 48 49 50
000
ASUS43 KIWX 230510
RWRIWX

KIWX WEATHER ROUNDUP
NATIONAL WEATHER SERVICE NORTHERN INDIANA
100 AM EDT SAT AUG 23 2014

NOTE: "FAIR" INDICATES FEW OR NO CLOUDS BELOW 12,000 FEET WITH NO
SIGNIFICANT WEATHER AND/OR OBSTRUCTIONS TO VISIBILITY.

* THESE STATIONS ARE NOT UNDER NWS QUALITY CONTROL. THEY ALSO MAY NOT
  REPORT WEATHER SUCH AS PRECIPITATION OR FOG.

INZ001>027-230600-
NORTHERN INDIANA

CITY           SKY/WX    TMP DP  RH WIND       PRES   REMARKS
GARY*          CLEAR     74  72  92 CALM      29.98F
VALPARAISO     CLEAR     72  70  93 CALM      30.00F
MICHIGAN CITY* FOG       72  72 100 CALM      29.99F VSB 3/4
LAPORTE*       CLEAR     71  71 100 CALM      30.01S FOG
KNOX*            N/A     70  68  92 CALM      29.99F VSB 1/4
SOUTH BEND     PTCLDY    75  73  93 N3        30.00F FOG
GOSHEN         PTCLDY    76  73  91 CALM      30.00S FOG
MONTICELLO*    CLEAR     71  70  99 CALM      29.99F
LOGANSPORT*    CLEAR     72  70  94 W3        30.01F
ROCHESTER*     CLEAR     73  73 100 CALM      30.01F
WARSAW*        PTCLDY    72  72 100 W3        30.01S
ANGOLA*        CLOUDY    72  63  73 CALM      30.02S
FORT WAYNE     RAIN      73  71  93 CALM      30.02S
HUNTINGTON*    CLOUDY    74  73  98 CALM      30.01S
PERU/GRISSOM   PTCLDY    74  74 100 NW1       30.01S
MARION*        CLEAR     70  69  98 CALM      30.01F FOG

$$
INZ028>050-230600-
CENTRAL INDIANA

CITY           SKY/WX    TMP DP  RH WIND       PRES   REMARKS
LAFAYETTE      CLEAR     71  71 100 CALM      29.99F FOG
KOKOMO*        CLEAR     73  70  88 CALM      30.01S
MUNCIE*        CLEAR     72  70  93 CALM      30.01F
INDIANAPOLIS   CLEAR     73  70  90 CALM      30.00S

$$
MIZ043>046-050>051-056>058-064>065-071>073-077>080-230600-
SOUTHWEST LOWER MICHIGAN

CITY           SKY/WX    TMP DP  RH WIND       PRES   REMARKS
BATTLE CREEK   CLEAR     74  70  87 E6        30.03S
BENTON HARBOR  MOCLDY    71  70  96 CALM      29.99F FOG
COLDWATER*     MOCLDY    73  72  96 CALM      30.02S FOG
HILLSDALE*     MOCLDY    73  73 100 E3        30.04S FOG
HOLLAND        CLEAR     73  70  90 E7        30.02S
GRAND RAPIDS   MOCLDY    71  71 100 E6        30.03S
KALAMAZOO      CLEAR     71  69  93 CALM      30.02S FOG
STURGIS*         N/A     72  72 100 CALM      30.01S FOG
THREE RIVERS*  CLOUDY    74  72  95 CALM      30.02S FOG

$$
OHZ001>008-015>018-024>025-230600-
NORTHWEST OHIO

CITY           SKY/WX    TMP DP  RH WIND       PRES   REMARKS
WAUSEON*       CLOUDY    70  70 100 NE6       30.03R FOG
DEFIANCE       MOCLDY    75  71  87 CALM      30.01S
FINDLAY        PTCLDY    73  70  90 E5        30.01S
TOLEDO EXPRESS MOCLDY    72  70  93 E3        30.02R FOG
TOLEDO METCALF MOCLDY    73  70  90 CALM      30.03R FOG
LIMA           CLOUDY    73  71  93 CALM      30.02R FOG

$$
&&



USA.gov is the U.S. government's official web portal to all federal, state and local government web resources and services.